Location: Newark
(45.5000°N, 11.4167°E)
Time: 03:58:23
(UTC+00:00)

Vanguard 3 - Pass Details

Date: 30 August 2019
Orbit: 508 x 3263 km, 33.4° (Epoch: 14 September)

Event Time Altitude Azimuth Distance (km) Brightness Sun altitude
Rises 13:06:00 0° 227° (SW) 6,735 12.6 46.4°
Reaches altitude 10° 13:11:40 10° 219° (SW) 5,340 12.3 45.7°
Maximum altitude 13:23:27 31° 166° (SSE) 2,939 10.7 44.2°
Drops below altitude 10° 13:31:04 10° 109° (ESE) 3,405 10.2 43.3°
Sets 13:33:48 0° 98° (E) 4,049 10.4 42.9°
